18 Nov
2006
18 Nov
'06
9:09 p.m.
ISS 1 25544U 98067A 06322.98842593 .00018062 00000-0 10640-3 0 937 2 25544 051.6324 109.5666 0011248 231.8242 258.7157 15.78208629457586
6512
Age (days ago)
6512
Last active (days ago)
0 comments
1 participants
participants (1)
-
Dave Larsen PhD